www.pogodaiklimat.ru

Погода и климат >> Архив погоды >> Великобритания >> Тири


ПОГОДА на Тири

  • Прогноз погоды на Тири
  • Монитор погоды на Тири

АРХИВ ПОГОДЫ на Тири

Время (UTC), дата Ветер
(напр.,м/с)
 
Видим.   Явления Облачность Т
(С)
Тd
(С)
f
(%)
Тe
(С)
Тes
(С)
Комфортность P
(гПа)
Po
(гПа)
Тmin
(С)
Tmax
(С)
R
(мм)
R24
(мм)
S
(см)
22 12.06 С 11
{15}
12 км н/о +10.2 +8.3 88 +5 +5 1016.6 1015.0
23 12.06 С 10
{14}
23 км н/о +10.1 +7.6 84 +6 +6 1016.3 1014.7
00 13.06 С 11
{14}
16 км н/о +9.3 +7.1 86 +4 +4 1015.5 1013.9
01 13.06 С 11
{15}
15 км н/о +9.1 +6.7 85 +4 +4 1014.8 1013.2
02 13.06 С 13
{16}
14 км н/о +8.9 +6.0 82 +3 +3 1013.8 1012.3
03 13.06 С 13
{16}
20 км н/о +8.5 +4.7 77 +3 +3 1013.0 1011.4
04 13.06 С 13
{17}
21 км н/о +8.7 +4.5 75 +3 +3 1012.9 1011.3
05 13.06 С 12
{18}
22 км н/о +9.0 +5.5 79 +4 +4 1012.3 1010.7
06 13.06 С 13
{17}
30 км н/о +9.1 +5.3 77 +4 +4 1011.7 1010.1 +8.4
07 13.06 С 12
{16}
24 км н/о +9.0 +5.0 76 +4 +4 1011.0 1009.4
08 13.06 С 11
{16}
23 км н/о +9.2 +4.7 73 +4 +4 1010.3 1008.8
09 13.06 С 12
{15}
30 км н/о +11.1 +6.5 73 +7 +7 1009.1 1007.5
10 13.06 С 12
{16}
23 км н/о +8.9 +5.4 79 +4 +4 1008.3 1006.8
11 13.06 С 11
{15}
35 км н/о +8.9 +4.8 75 +4 +4 1007.7 1006.1
12 13.06 С 11
{15}
30 км н/о +9.3 +4.9 74 +4 +4 1007.0 1005.4
13 13.06 С 11
{15}
24 км н/о +10.8 +6.1 73 +7 +7 1006.4 1004.8
14 13.06 С 11
{14}
23 км н/о +11.4 +6.5 72 +7 +7 1005.6 1004.0
15 13.06 С 11
{14}
25 км н/о +11.1 +6.9 75 +7 +7 1005.0 1003.4
16 13.06 С 10
{13}
23 км н/о +10.4 +6.2 75 +6 +6 1004.4 1002.8
17 13.06 С 10
{13}
40 км н/о +10.9 +6.7 75 +7 +7 1003.7 1002.1
18 13.06 С 9 30 км н/о +10.3 +6.3 76 +6 +6 1003.3 1001.8 +11.6
19 13.06 С 8 30 км н/о +10.2 +6.1 76 +6 +6 1003.1 1001.5
20 13.06 С 8 30 км н/о +9.0 +6.4 84 +5 +5 1002.9 1001.3
21 13.06 С 8 50 км н/о +8.9 +6.9 87 +4 +4 1002.9 1001.3
22 13.06 С 6 45 км н/о +9.1 +7.3 88 +5 +5 1002.7 1001.2
23 13.06 С 4 45 км н/о +9.0 +7.6 91 +6 +6 1002.6 1001.0
00 14.06 С 3 40 км н/о +9.5 +8.3 92 +7 +7 1002.1 1000.5
01 14.06 С 4 40 км н/о +9.6 +8.5 93 +7 +7 1001.5 999.9
02 14.06 СВ 4 45 км н/о +9.4 +8.1 92 +7 +7 1001.2 999.7
03 14.06 СВ 3 30 км н/о +8.5 +7.3 92 +6 +6 1000.9 999.4
04 14.06 СВ 2 30 км н/о +8.0 +6.9 93 +6 +6 1000.8 999.2
05 14.06 СВ 1 45 км н/о +8.3 +7.3 93 +7 +7 1000.7 999.2
06 14.06 ЮЗ 3 30 км н/о +9.3 +8.1 92 +7 +7 1000.8 999.2 +8.0
07 14.06 ЮЗ 3 40 км н/о +10.0 +7.9 87 +8 +8 1000.8 999.3
08 14.06 Ю 4 35 км н/о +10.4 +7.0 79 +8 +8 1001.2 999.6
09 14.06 Ю 4 45 км н/о +10.7 +7.4 80 +8 +8 1001.5 999.9
10 14.06 Ю 5 50 км н/о +11.6 +7.4 75 +9 +9 1001.5 999.9
11 14.06 Ю 5 35 км н/о +11.9 +8.0 77 +9 +9 1001.8 1000.2
12 14.06 ЮЗ 6 24 км н/о +12.8 +8.3 74 +10 +10 1002.1 1000.5
13 14.06 ЮЗ 6 28 км н/о +11.8 +8.4 80 +9 +9 1002.7 1001.1
14 14.06 ЮЗ 5 6000 м ливневой дождь н/о +10.7 +8.5 86 +8 +8 1003.2 1001.6
15 14.06 Ю 7 50 км в посл. час дождь н/о +12.4 +9.1 80 +9 +9 1003.4 1001.8
16 14.06 Ю 7 30 км в посл. час дождь н/о +11.4 +9.0 85 +8 +8 1003.7 1002.2
17 14.06 Ю 7 30 км н/о +12.4 +8.5 77 +10 +10 1004.3 1002.8
18 14.06 Ю 6 27 км н/о +12.1 +8.5 79 +9 +9 1004.8 1003.2 +13.4 0.2
19 14.06 Ю 4 40 км н/о +11.9 +7.9 76 +10 +10 1005.0 1003.4
20 14.06 ЮВ 4 40 км н/о +11.4 +7.6 77 +9 +9 1005.2 1003.7
21 14.06 Ю 5 23 км н/о +11.5 +9.2 86 +9 +9 1005.4 1003.9
22 14.06 ЮВ 6 20 км н/о +11.1 +9.3 89 +8 +8 1005.5 1004.0
23 14.06 ЮВ 7 35 км н/о +10.7 +8.9 89 +7 +7 1005.5 1004.0
00 15.06 В 6 17 км н/о +10.6 +8.9 89 +7 +7 1005.3 1003.8
01 15.06 В 4 21 км слаб. ливневой дождь н/о +10.4 +9.5 94 +8 +8 1005.2 1003.7
02 15.06 ЮВ 6 19 км в посл. час дождь н/о +10.9 +9.7 92 +8 +8 1005.0 1003.4
03 15.06 ЮВ 9 20 км н/о +10.9 +9.8 93 +7 +7 1005.0 1003.4
04 15.06 ЮВ 9
{13}
24 км н/о +10.6 +9.2 91 +6 +6 1005.0 1003.5
05 15.06 ЮВ 8 24 км н/о +10.7 +9.2 90 +7 +7 1005.4 1003.8
06 15.06 ЮВ 8 19 км н/о +11.0 +9.6 91 +7 +7 1005.6 1004.0 +10.3 1
07 15.06 ЮВ 7 17 км н/о +11.2 +9.7 90 +8 +8 1006.1 1004.5
08 15.06 ЮВ 7 26 км н/о +11.6 +9.6 88 +8 +8 1006.4 1004.9
09 15.06 ЮВ 6 22 км н/о +11.7 +10.1 90 +9 +9 1006.5 1005.0
10 15.06 ЮВ 6 18 км н/о +12.0 +10.4 90 +9 +9 1007.0 1005.4
11 15.06 ЮВ 6 11 км в посл. час дождь н/о +12.0 +10.7 92 +9 +9 1007.3 1005.8
12 15.06 ЮВ 5 16 км н/о +12.3 +10.4 88 +10 +10 1007.5 1005.9 0.0
13 15.06 ЮВ 4 26 км н/о +12.3 +10.0 86 +10 +10 1007.7 1006.1
14 15.06 ЮВ 3 22 км слаб. ливневой дождь н/о +12.2 +9.7 85 +11 +11 1007.7 1006.1
15 15.06 ЮВ 2 30 км слаб. морось с дождем н/о +11.7 +9.4 86 +11 +11 1007.6 1006.0
16 15.06 В 2 40 км в посл. час дождь н/о +11.9 +9.6 86 +11 +11 1007.4 1005.8
17 15.06 Ю 1 35 км н/о +11.8 +9.6 86 +12 +12 1007.2 1005.7
18 15.06 СЗ 1 40 км н/о +11.8 +9.8 88 +12 +12 1007.2 1005.7 +13.0 0.2
19 15.06 С 2 40 км н/о +11.6 +9.8 89 +10 +10 1007.2 1005.6
20 15.06 СЗ 3 30 км н/о +11.3 +9.7 90 +9 +9 1007.1 1005.5
21 15.06 СЗ 3 19 км н/о +10.8 +9.6 92 +9 +9 1007.3 1005.7
22 15.06 СЗ 3 23 км н/о +10.6 +9.5 93 +9 +9 1007.3 1005.7
23 15.06 З 2 6000 м слаб. ливневой дождь н/о +10.4 +9.5 94 +9 +9 1007.3 1005.7
00 16.06 З 4 6000 м дождь н/о +9.7 +8.9 95 +7 +7 1007.5 1006.0 3
01 16.06 ЮЗ 3 16 км в посл. час дождь н/о +9.9 +9.3 96 +8 +8 1007.4 1005.8
02 16.06 ЮЗ 4 14 км н/о +10.4 +9.8 96 +8 +8 1007.0 1005.5
03 16.06 ЮЗ 4 24 км н/о +10.3 +9.6 95 +8 +8 1006.9 1005.4
04 16.06 Ю 3 21 км н/о +9.8 +9.0 95 +7 +7 1006.8 1005.3
05 16.06 Ю 3 40 км н/о +10.1 +9.4 95 +8 +8 1007.0 1005.4
06 16.06 ЮЗ 2 13 км слаб. ливневой дождь н/о +10.7 +9.6 93 +9 +9 1007.3 1005.7 +9.2 5
07 16.06 Ю 3 40 км в посл. час дождь н/о +10.9 +9.6 92 +9 +9 1007.5 1005.9
08 16.06 Ю 4 35 км н/о +12.1 +9.1 82 +10 +10 1007.6 1006.0
09 16.06 Ю 5 30 км н/о +12.4 +10.3 87 +10 +10 1007.7 1006.2
10 16.06 Ю 6 27 км н/о +13.7 +11.8 88 +11 +11 1008.0 1006.4
11 16.06 Ю 7 30 км н/о +13.3 +11.0 86 +11 +11 1008.1 1006.5
12 16.06 Ю 6 22 км н/о +13.1 +10.0 81 +11 +11 1008.0 1006.4 0.2
13 16.06 Ю 5 30 км н/о +13.6 +9.9 78 +12 +12 1008.0 1006.5
14 16.06 Ю 5 21 км н/о +13.8 +10.5 80 +12 +12 1007.9 1006.4
15 16.06 Ю 5 30 км н/о +13.2 +9.6 79 +11 +11 1007.8 1006.2
16 16.06 Ю 4 35 км н/о +13.3 +9.1 76 +12 +12 1007.4 1005.8
17 16.06 Ю 4 50 км н/о +13.8 +8.6 71 +13 +13 1007.0 1005.4
18 16.06 ЮВ 5 35 км в посл. час туман н/о +13.0 +8.7 75 +11 +11 1006.6 1005.1 +14.0 0.2
19 16.06 ЮВ 5 40 км н/о +13.0 +9.7 80 +11 +11 1006.1 1004.5
20 16.06 ЮВ 6 35 км н/о +12.5 +9.5 82 +10 +10 1005.6 1004.0
21 16.06 ЮВ 7 20 км н/о +12.1 +9.7 85 +9 +9 1005.5 1003.9
22 16.06 Ю 7 9000 м слаб. дождь н/о +11.0 +10.0 94 +7 +7 1005.1 1003.5
23 16.06 ЮВ 5 10 км слаб. морось н/о +11.2 +10.5 95 +8 +8 1004.4 1002.9
00 17.06 ЮВ 4 21 км в посл. час дождь н/о +11.2 +10.5 95 +9 +9 1004.3 1002.8 6
01 17.06 Ю 4 35 км в посл. час дождь н/о +11.0 +10.3 95 +8 +8 1004.3 1002.8
02 17.06 ЮЗ 4 40 км в посл. час дождь н/о +10.5 +9.7 95 +8 +8 1004.3 1002.7
03 17.06 ЮЗ 4 45 км н/о +10.4 +9.7 95 +8 +8 1004.3 1002.7
04 17.06 Ю 5 50 км н/о +10.0 +9.1 94 +7 +7 1004.2 1002.7
05 17.06 ЮЗ 5 50 км н/о +10.7 +9.8 94 +8 +8 1004.5 1003.0
06 17.06 Ю 7 35 км н/о +11.4 +10.2 92 +8 +8 1004.6 1003.1 +9.8 6
07 17.06 Ю 7 17 км слаб. ливневой дождь н/о +11.6 +10.4 92 +8 +8 1004.7 1003.2
08 17.06 Ю 8 15 км в посл. час дождь н/о +11.7 +10.7 94 +8 +8 1004.8 1003.2
09 17.06 Ю 9 19 км в посл. час дождь н/о +12.3 +10.7 90 +9 +9 1004.6 1003.1
10 17.06 Ю 9 12 км слаб. ливневой дождь н/о +11.8 +10.6 92 +8 +8 1004.4 1002.9
11 17.06 ЮЗ 6
{13}
9000 м ливневой дождь н/о +10.5 +9.0 90 +7 +7 1004.7 1003.1
12 17.06 ЮЗ 4 20 км в посл. час дождь н/о +12.0 +11.0 94 +10 +10 1004.5 1003.0 2
13 17.06 ЮЗ 2 35 км в посл. час дождь н/о +11.0 +9.8 92 +10 +10 1004.5 1002.9
14 17.06 З 6 27 км в посл. час дождь н/о +11.9 +11.0 94 +9 +9 1004.9 1003.4
15 17.06 З 9 40 км н/о +14.2 +11.8 85 +12 +12 1005.9 1004.3
16 17.06 ЮЗ 9 50 км н/о +14.0 +11.0 82 +11 +11 1006.6 1005.1
17 17.06 ЮЗ 8 25 км н/о +13.9 +10.6 80 +11 +11 1007.1 1005.5
18 17.06 ЮЗ 7 30 км н/о +13.3 +10.6 84 +11 +11 1007.3 1005.7 +14.6 2
19 17.06 ЮЗ 7 35 км н/о +13.2 +10.6 84 +11 +11 1007.5 1005.9
20 17.06 ЮЗ 6 21 км н/о +12.2 +9.9 86 +9 +9 1007.6 1006.0
21 17.06 Ю 7 22 км н/о +11.4 +9.6 89 +8 +8 1007.5 1005.9
22 17.06 Ю 7 22 км н/о +11.4 +9.7 89 +8 +8 1007.6 1006.0
23 17.06 Ю 8 20 км н/о +11.7 +9.6 87 +8 +8 1007.4 1005.9
00 18.06 Ю 9
{13}
19 км н/о +11.9 +9.5 85 +8 +8 1007.4 1005.8
01 18.06 Ю 10
{14}
19 км н/о +11.7 +9.5 86 +8 +8 1007.0 1005.4
02 18.06 Ю 10
{15}
19 км н/о +11.8 +9.3 85 +8 +8 1006.6 1005.0
03 18.06 Ю 10
{15}
7000 м ливневой дождь н/о +11.0 +9.7 92 +7 +7 1006.2 1004.6
04 18.06 ЮЗ 8
{15}
20 км в посл. час дождь н/о +10.7 +9.6 93 +7 +7 1006.2 1004.6
05 18.06 ЮЗ 8 9000 м слаб. морось с дождем н/о +10.4 +9.5 94 +6 +6 1006.4 1004.8
06 18.06 ЮЗ 7 27 км в посл. час дождь н/о +11.0 +9.6 91 +7 +7 1006.6 1005.0 +10.3 2
07 18.06 ЮЗ 8 22 км н/о +11.5 +9.9 90 +8 +8 1007.0 1005.4
08 18.06 ЮЗ 8 15 км в посл. час дождь н/о +11.1 +10.0 93 +7 +7 1007.4 1005.8
09 18.06 ЮЗ 8 13 км н/о +12.5 +10.3 86 +9 +9 1007.7 1006.2
10 18.06 ЮЗ 9
{13}
17 км н/о +12.4 +9.4 82 +9 +9 1008.2 1006.6
11 18.06 ЮЗ 8
{13}
18 км н/о +12.7 +10.1 84 +10 +10 1008.4 1006.8
12 18.06 ЮЗ 9
{13}
21 км н/о +14.0 +11.0 82 +11 +11 1008.7 1007.1 0.0
13 18.06 ЮЗ 9
{13}
35 км н/о +13.8 +10.8 82 +11 +11 1008.8 1007.2
14 18.06 ЮЗ 9
{13}
19 км н/о +13.8 +10.9 83 +11 +11 1009.1 1007.5
15 18.06 ЮЗ 8 16 км н/о +13.7 +10.9 83 +11 +11 1009.1 1007.5
16 18.06 ЮЗ 8 20 км н/о +13.2 +9.8 80 +10 +10 1009.0 1007.5
17 18.06 ЮЗ 8 22 км н/о +13.6 +11.1 85 +11 +11 1008.8 1007.2
18 18.06 ЮЗ 6 22 км н/о +12.6 +10.3 86 +10 +10 1008.7 1007.1 +14.8 0.0
19 18.06 Ю 6 17 км н/о +12.4 +10.5 88 +10 +10 1008.6 1007.0
20 18.06 Ю 6 25 км в посл. час дождь н/о +11.9 +10.5 91 +9 +9 1008.5 1007.0
21 18.06 ЮЗ 5 23 км н/о +11.7 +10.5 92 +9 +9 1008.3 1006.8
22 18.06 Ю 5 26 км н/о +11.5 +10.2 92 +9 +9 1008.3 1006.7
23 18.06 ЮЗ 5 4800 м ливневой дождь н/о +11.0 +10.0 94 +8 +8 1008.0 1006.5
00 19.06 ЮЗ 5 23 км в посл. час дождь н/о +11.2 +10.2 94 +8 +8 1007.6 1006.0 1
01 19.06 ЮЗ 7 23 км н/о +11.4 +10.1 92 +8 +8 1007.1 1005.5
02 19.06 Ю 6 27 км н/о +11.2 +9.7 90 +8 +8 1006.6 1005.1
03 19.06 Ю 6 21 км н/о +11.5 +10.2 92 +8 +8 1006.3 1004.7
04 19.06 Ю 6 19 км н/о +11.6 +10.3 92 +9 +9 1005.9 1004.3
05 19.06 Ю 7 22 км в посл. час дождь н/о +10.5 +9.6 94 +7 +7 1005.5 1003.9
06 19.06 Ю 6 20 км н/о +11.4 +10.5 94 +8 +8 1005.3 1003.8 +10.3 2
07 19.06 ЮЗ 6 30 км в посл. час дождь н/о +11.6 +10.5 93 +9 +9 1005.4 1003.8
08 19.06 ЮЗ 7 24 км в посл. час дождь н/о +10.9 +9.8 93 +7 +7 1005.4 1003.8
09 19.06 ЮЗ 7 30 км в посл. час дождь н/о +12.2 +10.6 90 +9 +9 1005.2 1003.6
10 19.06 ЮЗ 8 24 км н/о +12.8 +10.6 86 +10 +10 1005.1 1003.5
11 19.06 ЮЗ 7 30 км н/о +13.9 +11.3 84 +12 +12 1005.1 1003.5
12 19.06 ЮЗ 8 17 км н/о +14.0 +10.3 78 +11 +11 1005.1 1003.6 0.6
13 19.06 ЮЗ 8 18 км н/о +13.3 +10.0 80 +10 +10 1005.3 1003.8
14 19.06 ЮЗ 8 24 км н/о +13.8 +9.9 77 +11 +11 1005.2 1003.7
15 19.06 ЮЗ 8 18 км н/о +13.8 +9.7 76 +11 +11 1004.9 1003.4
17 19.06 ЮЗ 8 19 км в посл. час дождь н/о +13.1 +9.2 77 +10 +10 1004.7 1003.2
18 19.06 ЮЗ 7 19 км н/о +13.1 +8.5 74 +11 +11 1004.7 1003.1 +14.9 0.8
19 19.06 ЮЗ 6 25 км н/о +12.1 +9.0 81 +9 +9 1004.5 1002.9
20 19.06 ЮЗ 5 8000 м дым н/о +11.8 +8.5 80 +9 +9 1004.4 1002.9

 

Местоположение метеостанции Тири (Великобритания): широта 56.50 долгота -6.88 высота над уровнем моря 12 м.

В архиве по умолчанию представлена погода на Тири за последнюю неделю. Архивные данные за месяц целиком и за предыдущие месяцы, начиная с января 2011 года, Вы можете получить, выбрав интересующий диапазон дат из раскрывающегося списка и нажав кнопку "Ввод!".


*Определитесь, кто Вы:
робот инопланетянин человек

Внимание! Время в таблицах - всемирное. Для получения местного времени необходимо прибавить поправку, которая равна 0 ч.

Смотрите также архив погоды в соседних городах и на ближайших метеорологических станциях:

Погода на Южном Уисте (Великобритания) (97 км)
Погода в Порт-Эллене (Великобритания) (99 км)
Погода на Скае (Великобритания) (106 км)
Погода на Горе Аонах Мор (Великобритания) (122 км)
Погода на Перевале Bealach Na Ba (Великобритания) (126 км)
Погода в Малин Хед (Ирландия) (129 км)
Погода на Станции Tulloch Bridge (Великобритания) (139 км)
Погода в Макрайханише (Великобритания) (140 км)
Погода на Магиллигане (Великобритания) (150 км)
Погода в Баллипатрик Форест (Великобритания) (153 км)

Пояснения к столбцам:

Ветер - указаны скорость ветра в м/с - средняя за 10 мин, порывы в срок и между сроками (в фигурных скобках) и направление, откуда дует ветер: С - северный, СВ - северо-восточный, В - восточный, ЮВ - юго-восточный, Ю - южный, ЮЗ - юго-западный, З - западный, СЗ - северо-западный.
Видимость - горизонтальная дальность видимости в метрах или километрах. При видимости от 1 до 10 км при отсутствии осадков обычно наблюдается дымка, при ухудшении видимости до 1 км и менее - туман. В сухую погоду видимость может ухудшаться дымом, пылью или мглою.
Явления - указаны атмосферные явления, наблюдавшиеся в срок или в последний час перед сроком; фигурными скобками обозначены явления, наблюдавшиеся между сроками (за 1-3 часа до срока); квадратными скобками обозначены град или гололедные отложения с указанием их диаметра в мм.
Облачность - указаны через наклонную черту общая и нижняя облачность в баллах и высота нижней границы облаков в метрах; квадратными скобками обозначены формы облаков: Ci - перистые, Cs - перисто-слоистые, Cc - перисто-кучевые, Ac - высококучевые, As - высокослоистые, Sc - слоисто-кучевые, Ns - слоисто-дождевые, Cu - кучевые, Cb - кучево-дождевые. Подробнее классификацию облаков см. в Атласе облаков (PDF).
T - Температура воздуха - температура, измеренная на высоте 2 м над землей.
Td - Температура точки росы - температура, при понижении до которой содержащийся в воздухе водяной пар достигнет насыщения.
f - Относительная влажность воздуха - влажноcть воздуха, измеренная на высоте 2 м над землей.
Te - Эффективная температура - температура, которую ощущает одетый по сезону человек в тени. Характеристика душности погоды. При расчете учитывается влияние влажности воздуха и скорости ветра на теплоощущения человека.
Tes - Эффективная температура на солнце - температура, которую ощущает человек, с поправкой на солнечный нагрев. Характеристика знойности погоды. Зависит от высоты солнца над горизонтом, облачности и скорости ветра. Ночью, в пасмурную погоду, а также при ветре 12 м/с и более поправка равна нулю.
P - Атмосферное давление - приведенное к уровню моря атмосферное давление.
Po - Атмосферное давление - измеренное на уровне метеостанции атмосферное давление.
Tmin - Минимальная температура - минимум температуры воздуха на высоте 2 м над землей.
Tmax - Максимальная температура - максимум температуры воздуха на высоте 2 м над землей.
R - Количество осадков - Количество выпавших осадков за период времени, мм. При наведении курсора мыши на число - период времени, за который выпало указанное количество осадков.
R24 - Количество осадков - Количество выпавших осадков за 24 часа, мм.
S - Снежный покров - Высота снежного покрова, см. При наведении курсора мыши на число - состояние снежного покрова и степень покрытия местности в баллах.